TimeEDT,TemperatureF,Dew PointF,Humidity,Sea Level PressureIn,VisibilityMPH,Wind Direction,Wind SpeedMPH,Gust SpeedMPH,PrecipitationIn,Events,Conditions,WindDirDegrees,DateUTC
12:53 AM,59.0,57.0,93,30.09,9.0,Calm,Calm,-,N/A,,Clear,0,2013-10-02 04:53:00
1:53 AM,59.0,55.9,90,30.10,9.0,Calm,Calm,-,N/A,,Clear,0,2013-10-02 05:53:00
2:53 AM,57.0,55.0,93,30.11,8.0,Calm,Calm,-,N/A,,Scattered Clouds,0,2013-10-02 06:53:00
3:53 AM,57.0,55.0,93,30.10,9.0,Calm,Calm,-,N/A,,Partly Cloudy,0,2013-10-02 07:53:00
4:53 AM,57.0,55.0,93,30.11,8.0,Calm,Calm,-,N/A,,Scattered Clouds,0,2013-10-02 08:53:00
5:53 AM,55.0,54.0,96,30.12,6.0,Calm,Calm,-,N/A,,Clear,0,2013-10-02 09:53:00
6:53 AM,55.0,53.1,93,30.13,10.0,Calm,Calm,-,N/A,,Clear,0,2013-10-02 10:53:00
7:53 AM,57.0,55.0,93,30.14,10.0,Calm,Calm,-,N/A,,Scattered Clouds,0,2013-10-02 11:53:00
8:53 AM,60.1,57.9,93,30.16,10.0,SSE,3.5,-,N/A,,Scattered Clouds,160,2013-10-02 12:53:00
9:53 AM,64.9,60.1,84,30.17,10.0,SSW,4.6,-,N/A,,Scattered Clouds,200,2013-10-02 13:53:00
10:53 AM,71.1,62.1,73,30.16,10.0,SSW,5.8,-,N/A,,Scattered Clouds,200,2013-10-02 14:53:00
11:53 AM,73.0,63.0,71,30.15,10.0,Calm,Calm,-,N/A,,Scattered Clouds,0,2013-10-02 15:53:00
12:53 PM,75.9,64.0,67,30.14,10.0,West,8.1,-,N/A,,Mostly Cloudy,260,2013-10-02 16:53:00
1:53 PM,77.0,64.9,66,30.12,10.0,West,5.8,-,N/A,,Partly Cloudy,280,2013-10-02 17:53:00
2:53 PM,80.1,64.0,58,30.10,10.0,SW,5.8,-,N/A,,Partly Cloudy,220,2013-10-02 18:53:00
3:53 PM,80.1,63.0,56,30.09,10.0,Variable,4.6,-,N/A,,Partly Cloudy,0,2013-10-02 19:53:00
4:53 PM,81.0,63.0,54,30.08,10.0,WSW,6.9,-,N/A,,Partly Cloudy,250,2013-10-02 20:53:00
5:53 PM,79.0,64.0,60,30.08,10.0,SSW,3.5,-,N/A,,Partly Cloudy,200,2013-10-02 21:53:00
6:53 PM,73.9,66.0,76,30.08,10.0,Calm,Calm,-,N/A,,Clear,0,2013-10-02 22:53:00
7:53 PM,71.1,66.0,84,30.09,9.0,Calm,Calm,-,N/A,,Clear,0,2013-10-02 23:53:00
8:53 PM,66.9,64.9,93,30.10,10.0,Calm,Calm,-,N/A,,Clear,0,2013-10-03 00:53:00
9:53 PM,66.0,64.0,93,30.10,10.0,Calm,Calm,-,N/A,,Clear,0,2013-10-03 01:53:00
10:53 PM,64.9,63.0,93,30.11,10.0,Calm,Calm,-,N/A,,Clear,0,2013-10-03 02:53:00
11:53 PM,64.0,63.0,96,30.11,2.5,Calm,Calm,-,N/A,,Clear,0,2013-10-03 03:53:00